DW5513 Weather Reports


Display with metric or nautical units.
time (UTC)temp
F
wind
direction
speed
MPH
gust
MPH
rain 1hr
in
rain 24hr
in
rain mn
in
humidity
%
barometer
mb
20260506084634 50 168 0.0 1.0 0.00 0.24 0.00 96 1007.3
20260506083058 50 167 0.0 0.0 0.00 0.24 0.00 96 1007.5
20260506081600 50 168 0.0 0.0 0.00 0.24 0.00 96 1007.8
20260506073151 50 242 0.0 1.0 0.00 0.24 0.00 96 1008.2
20260506071549 50 241 0.0 1.0 0.00 0.24 0.00 96 1008.4
20260506061543 51 273 0.0 0.0 0.00 0.24 0.00 95 1009.0
20260506044537 52 250 0.0 1.0 0.00 0.24 0.00 93 1009.6
20260506043030 52 250 0.0 1.0 0.00 0.24 0.00 93 1009.6
20260506041529 53 250 0.0 1.0 0.00 0.24 0.00 92 1009.4
20260506040032 53 250 0.0 0.0 0.00 0.24 0.00 91 1009.8
20260506034524 53 250 0.0 1.0 0.00 0.24 0.24 91 1009.8
20260506033023 53 127 0.0 0.0 0.00 0.24 0.24 92 1009.6
20260506031523 53 228 0.0 1.0 0.00 0.24 0.24 92 1010.1
20260506030021 54 219 0.0 1.0 0.00 0.24 0.24 92 1009.4
20260506024521 54 164 0.0 1.0 0.00 0.24 0.24 92 1009.6
20260506023034 54 164 0.0 2.0 0.00 0.24 0.24 92 1009.5
20260506021532 54 161 0.0 2.0 0.00 0.24 0.24 92 1009.3
20260506020025 54 243 0.0 2.0 0.00 0.24 0.24 91 1009.0
20260506014518 55 1 0.0 3.0 0.01 0.24 0.24 89 1008.8
20260506013018 55 319 1.0 6.0 0.02 0.24 0.24 88 1009.3
20260506011513 56 51 2.0 8.0 0.04 0.24 0.24 88 1009.0
20260506010013 58 343 0.0 11.0 0.04 0.24 0.24 90 1007.8
20260506004511 59 299 1.0 6.0 0.03 0.23 0.23 92 1008.0
20260506003007 59 325 2.0 10.0 0.02 0.22 0.22 97 1007.5
20260506001502 59 249 0.0 1.0 0.00 0.20 0.20 96 1007.2
20260505234600 60 178 0.0 2.0 0.00 0.20 0.20 96 1006.4
20260505233105 60 73 0.0 2.0 0.00 0.20 0.20 96 1006.3
20260505231609 61 70 0.0 2.0 0.00 0.20 0.20 96 1006.3
20260505230055 61 227 0.0 1.0 0.00 0.20 0.20 96 1006.1
20260505224557 61 227 0.0 1.0 0.00 0.20 0.20 96 1006.2
20260505223056 60 184 0.0 0.0 0.00 0.20 0.20 97 1006.0
20260505221559 60 97 0.0 1.0 0.00 0.20 0.20 97 1005.9
20260505220058 60 15 0.0 2.0 0.00 0.20 0.20 97 1005.7
20260505214557 60 208 0.0 1.0 0.00 0.20 0.20 96 1005.9
20260505213051 60 208 0.0 2.0 0.00 0.20 0.20 96 1006.2
20260505211550 60 163 0.0 1.0 0.05 0.20 0.20 96 1006.4
20260505210049 59 161 0.0 2.0 0.12 0.20 0.20 95 1006.1
20260505204549 59 96 0.0 1.0 0.15 0.20 0.20 95 1005.8
20260505203106 58 253 0.0 2.0 0.15 0.20 0.20 93 1006.3
20260505201552 59 323 2.0 12.0 0.09 0.14 0.14 89 1006.7
20260505200051 61 18 4.0 11.0 0.03 0.08 0.08 84 1006.1
20260505194544 68 313 7.0 17.0 0.00 0.05 0.05 70 1005.9
20260505193044 68 235 3.0 6.0 0.03 0.05 0.05 67 1004.4
20260505191545 66 247 0.0 3.0 0.04 0.05 0.05 71 1004.5
20260505190042 64 242 0.0 4.0 0.04 0.05 0.05 74 1004.9
20260505184542 66 143 4.0 14.0 0.04 0.05 0.05 69 1005.4
20260505183040 70 264 5.0 14.0 0.00 0.01 0.01 61 1004.9
20260505181543 74 241 4.0 10.0 0.00 0.01 0.01 52 1004.1
20260505180039 76 326 3.0 10.0 0.00 0.01 0.01 49 1003.6
20260505174541 77 288 5.0 14.0 0.00 0.01 0.01 45 1003.6
20260505173034 77 253 5.0 15.0 0.00 0.01 0.01 44 1003.5
20260505171533 77 236 1.0 5.0 0.00 0.01 0.01 47 1003.7
20260505170038 76 224 2.0 11.0 0.00 0.01 0.01 46 1003.6
20260505164529 77 217 5.0 13.0 0.00 0.01 0.01 46 1003.9
20260505163030 76 264 5.0 10.0 0.00 0.01 0.01 47 1004.2
20260505161522 75 243 5.0 10.0 0.00 0.01 0.01 49 1004.6
20260505153021 75 210 2.0 14.0 0.00 0.01 0.01 50 1004.9
20260505151518 75 171 4.0 11.0 0.00 0.01 0.01 49 1004.8
20260505140107 68 150 1.0 8.0 0.00 0.01 0.01 61 1006.0
20260505124540 62 188 0.0 2.0 0.00 0.01 0.01 73 1006.5
20260505123040 62 250 0.0 2.0 0.00 0.01 0.01 71 1006.4
20260505121538 61 162 0.0 1.0 0.00 0.01 0.01 72 1006.1
20260505120043 62 245 0.0 2.0 0.00 0.01 0.01 71 1006.2
20260505114539 61 242 1.0 6.0 0.00 0.01 0.01 70 1006.3
20260505113033 59 187 0.0 6.0 0.00 0.01 0.01 77 1006.4
20260505111526 55 143 1.0 6.0 0.00 0.01 0.01 85 1006.3
20260505101519 50 41 1.0 3.0 0.01 0.01 0.01 93 1005.9
20260505100020 50 93 0.0 1.0 0.01 0.01 0.01 91 1005.9
20260505094515 52 210 0.0 3.0 0.01 0.01 0.01 89 1006.1
20260505093025 50 51 0.0 3.0 0.00 0.00 0.00 89 1006.1
20260505091510 50 102 0.0 4.0 0.00 0.00 0.00 89 1006.2
20260505090010 50 68 0.0 2.0 0.00 0.00 0.00 87 1006.2